WXM80 ListenWXM80 Stop

You find our weather info also at:

UK Metoffice

WeatherCloud

Weather Underground

Northeastern Weather Network

AWEKAS

Citizen Weather Observer Program (CWOP)

HAMweather, WeatherForYou, PWS Weather


Weather Underground History page Text

Daily Summary for January 30, 2018 Units:  English    Metric   Both
« Previous Day
Next Day »
Daily Weekly Monthly Yearly Custom
  High: Low: Average:
Temperature: 37.2 °F 26.0 °F 31.3 °F
Dew Point: 32.2 °F 18.3 °F 27.7 °F
Humidity: 95 % 72 % 87 %
Wind Speed: 10.4 mph 0.0 mph 4.5 mph
Wind Gust: 20.7 mph - -
Wind:- - SSW
Pressure: 29.90 in 29.66 in -
Precipitation: 0.05 in    
Historical Graphs
 
 
Tabular Data for January 30, 2018
Time Temperature Dew Point Pressure Wind Wind Speed Wind Gust Humidity Rainfall Rate (Hourly)
00:00 32.3 °F 27.1 °F 29.75 in NNE 6.9 mph 13.8 mph 81 % 0.00 in
00:06 32.2 °F 27.0 °F 29.75 in NE 5.0 mph 14.0 mph 81 % 0.00 in
00:11 32.1 °F 27.3 °F 29.75 in NE 9.0 mph 16.0 mph 82 % 0.00 in
00:16 32.0 °F 27.1 °F 29.75 in ENE 7.4 mph 12.7 mph 82 % 0.00 in
00:21 32.0 °F 26.8 °F 29.75 in NE 6.5 mph 11.5 mph 81 % 0.00 in
00:26 32.0 °F 26.8 °F 29.75 in NNE 7.6 mph 11.5 mph 81 % 0.00 in
00:31 32.0 °F 26.8 °F 29.75 in NNE 5.3 mph 9.2 mph 81 % 0.00 in
00:36 32.0 °F 27.1 °F 29.75 in NE 6.4 mph 11.5 mph 82 % 0.00 in
00:41 32.0 °F 27.4 °F 29.75 in North 6.3 mph 11.5 mph 83 % 0.00 in
00:46 31.8 °F 27.5 °F 29.75 in NNE 7.1 mph 11.5 mph 84 % 0.00 in
00:51 31.7 °F 27.7 °F 29.74 in NNE 4.5 mph 11.0 mph 85 % 0.00 in
00:56 31.5 °F 27.8 °F 29.74 in NNE 6.4 mph 11.5 mph 86 % 0.00 in
01:01 31.4 °F 28.0 °F 29.74 in NNE 6.8 mph 10.4 mph 87 % 0.00 in
01:06 31.2 °F 27.8 °F 29.74 in North 7.9 mph 11.5 mph 87 % 0.00 in
01:11 31.0 °F 27.9 °F 29.74 in NE 6.8 mph 11.5 mph 88 % 0.00 in
01:16 30.9 °F 28.0 °F 29.74 in North 7.0 mph 10.0 mph 89 % 0.00 in
01:21 30.8 °F 28.2 °F 29.75 in NE 5.4 mph 11.5 mph 90 % 0.00 in
01:26 30.7 °F 28.1 °F 29.74 in NNE 8.1 mph 11.5 mph 90 % 0.00 in
01:31 30.5 °F 28.2 °F 29.73 in NNE 5.7 mph 9.2 mph 91 % 0.00 in
01:37 30.5 °F 28.2 °F 29.74 in NNE 5.3 mph 6.9 mph 91 % 0.00 in
01:42 30.3 °F 28.0 °F 29.73 in NNE 7.6 mph 12.7 mph 91 % 0.00 in
01:47 30.2 °F 28.2 °F 29.73 in NNE 5.9 mph 10.4 mph 92 % 0.00 in
01:52 30.0 °F 28.0 °F 29.73 in NNE 6.2 mph 11.5 mph 92 % 0.00 in
01:57 29.9 °F 27.9 °F 29.73 in NNE 6.6 mph 11.5 mph 92 % 0.00 in
02:02 29.8 °F 28.0 °F 29.73 in NNE 7.0 mph 8.1 mph 93 % 0.00 in
02:07 29.8 °F 28.0 °F 29.72 in NNE 5.7 mph 11.5 mph 93 % 0.00 in
02:12 29.8 °F 28.0 °F 29.71 in NNE 6.4 mph 11.5 mph 93 % 0.00 in
02:17 29.7 °F 27.9 °F 29.72 in NE 7.6 mph 11.5 mph 93 % 0.00 in
02:22 29.7 °F 28.2 °F 29.72 in North 5.7 mph 6.0 mph 94 % 0.00 in
02:27 29.7 °F 28.2 °F 29.72 in NNE 7.1 mph 9.2 mph 94 % 0.00 in
02:32 29.6 °F 28.1 °F 29.71 in NE 7.5 mph 12.7 mph 94 % 0.00 in
02:37 29.5 °F 28.0 °F 29.72 in NE 7.1 mph 11.5 mph 94 % 0.00 in
02:42 29.4 °F 27.9 °F 29.72 in NNE 6.8 mph 10.4 mph 94 % 0.00 in
02:47 29.4 °F 27.9 °F 29.73 in NNE 5.0 mph 8.0 mph 94 % 0.00 in
02:52 29.4 °F 27.9 °F 29.73 in NNE 6.4 mph 8.1 mph 94 % 0.00 in
02:57 29.4 °F 27.9 °F 29.72 in North 4.1 mph 9.2 mph 94 % 0.00 in
03:02 29.4 °F 27.9 °F 29.72 in NNE 6.8 mph 10.4 mph 94 % 0.00 in
03:08 29.4 °F 27.9 °F 29.71 in NNE 6.9 mph 9.0 mph 94 % 0.00 in
03:13 29.3 °F 27.8 °F 29.72 in NNE 4.2 mph 10.4 mph 94 % 0.00 in
03:18 29.3 °F 27.8 °F 29.72 in North 5.3 mph 10.4 mph 94 % 0.00 in
03:23 29.3 °F 27.5 °F 29.72 in NNE 9.9 mph 12.7 mph 93 % 0.00 in
03:28 29.3 °F 27.5 °F 29.73 in NNE 5.8 mph 12.0 mph 93 % 0.00 in
03:33 29.2 °F 27.4 °F 29.73 in NNE 4.4 mph 9.0 mph 93 % 0.00 in
03:38 29.2 °F 27.4 °F 29.72 in NNW 5.1 mph 8.1 mph 93 % 0.00 in
03:43 29.2 °F 27.4 °F 29.72 in NE 6.0 mph 9.2 mph 93 % 0.00 in
03:48 29.2 °F 27.4 °F 29.72 in North 5.1 mph 9.2 mph 93 % 0.00 in
03:53 29.2 °F 27.4 °F 29.72 in NNE 6.5 mph 9.2 mph 93 % 0.00 in
03:58 29.2 °F 27.4 °F 29.72 in North 5.5 mph 8.1 mph 93 % 0.00 in
04:03 29.2 °F 27.4 °F 29.72 in NNW 3.9 mph 6.9 mph 93 % 0.00 in
04:08 29.2 °F 27.4 °F 29.73 in North 4.8 mph 5.8 mph 93 % 0.00 in
04:13 29.2 °F 27.4 °F 29.72 in North 4.2 mph 6.9 mph 93 % 0.00 in
04:18 29.2 °F 27.4 °F 29.71 in NNE 5.9 mph 7.0 mph 93 % 0.00 in
04:23 29.2 °F 27.7 °F 29.71 in NNE 6.0 mph 9.0 mph 94 % 0.00 in
04:29 29.2 °F 27.7 °F 29.72 in NNE 4.2 mph 5.8 mph 94 % 0.00 in
04:34 29.2 °F 27.7 °F 29.72 in North 3.7 mph 6.0 mph 94 % 0.00 in
04:39 29.2 °F 27.7 °F 29.72 in North 6.0 mph 11.5 mph 94 % 0.00 in
04:44 29.1 °F 27.6 °F 29.72 in NE 5.4 mph 8.1 mph 94 % 0.00 in
04:49 29.1 °F 27.6 °F 29.72 in NNE 5.1 mph 8.1 mph 94 % 0.00 in
04:54 29.1 °F 27.6 °F 29.72 in NNE 3.7 mph 6.0 mph 94 % 0.00 in
04:59 29.2 °F 27.7 °F 29.72 in NNE 3.7 mph 6.9 mph 94 % 0.00 in
05:04 29.1 °F 27.6 °F 29.72 in NNE 3.1 mph 8.1 mph 94 % 0.00 in
05:09 29.2 °F 27.7 °F 29.73 in North 2.9 mph 4.0 mph 94 % 0.00 in
05:14 29.2 °F 27.7 °F 29.73 in North 3.6 mph 5.8 mph 94 % 0.00 in
05:19 29.2 °F 27.7 °F 29.73 in North 0.7 mph 3.5 mph 94 % 0.00 in
05:24 29.2 °F 27.7 °F 29.73 in North 3.1 mph 4.6 mph 94 % 0.01 in
05:29 29.3 °F 28.0 °F 29.73 in NE 3.5 mph 6.9 mph 95 % 0.01 in
05:34 29.3 °F 28.0 °F 29.73 in NNE 3.8 mph 6.0 mph 95 % 0.01 in
05:39 29.3 °F 28.0 °F 29.73 in North 2.4 mph 6.0 mph 95 % 0.01 in
05:44 29.3 °F 28.0 °F 29.73 in NNW 4.0 mph 6.0 mph 95 % 0.01 in
05:49 29.4 °F 28.1 °F 29.73 in NNE 2.7 mph 6.9 mph 95 % 0.02 in
05:54 29.4 °F 28.1 °F 29.73 in NNE 2.7 mph 6.9 mph 95 % 0.02 in
06:00 29.5 °F 28.2 °F 29.73 in North 1.0 mph 3.5 mph 95 % 0.02 in
06:05 29.5 °F 28.2 °F 29.73 in North 4.3 mph 4.6 mph 95 % 0.02 in
06:10 29.5 °F 28.2 °F 29.73 in NNW 4.4 mph 5.8 mph 95 % 0.02 in
06:15 29.5 °F 28.2 °F 29.74 in North 5.3 mph 8.1 mph 95 % 0.03 in
06:20 29.5 °F 28.2 °F 29.73 in North 4.9 mph 8.1 mph 95 % 0.03 in
06:25 29.5 °F 28.2 °F 29.73 in NNE 5.2 mph 8.1 mph 95 % 0.02 in
06:30 29.5 °F 28.2 °F 29.73 in North 6.1 mph 8.1 mph 95 % 0.02 in
06:35 29.4 °F 28.1 °F 29.73 in NNW 3.9 mph 6.9 mph 95 % 0.02 in
06:40 29.4 °F 28.1 °F 29.74 in NNE 4.1 mph 5.0 mph 95 % 0.02 in
06:45 29.4 °F 28.1 °F 29.74 in NNW 3.1 mph 6.9 mph 95 % 0.02 in
06:50 29.5 °F 28.2 °F 29.74 in North 2.4 mph 4.0 mph 95 % 0.01 in
06:55 29.5 °F 28.2 °F 29.74 in NNE 4.2 mph 6.9 mph 95 % 0.01 in
07:00 29.4 °F 28.1 °F 29.74 in North 5.1 mph 6.9 mph 95 % 0.01 in
07:04 29.4 °F 28.1 °F 29.74 in North 5.3 mph 8.1 mph 95 % 0.01 in
07:09 29.3 °F 28.0 °F 29.73 in North 3.8 mph 4.6 mph 95 % 0.01 in
07:14 29.4 °F 28.1 °F 29.74 in NE 5.7 mph 7.0 mph 95 % 0.01 in
07:20 29.3 °F 28.0 °F 29.73 in NNE 3.9 mph 5.8 mph 95 % 0.01 in
07:25 29.3 °F 28.0 °F 29.74 in North 4.8 mph 6.9 mph 95 % 0.01 in
07:30 29.3 °F 28.0 °F 29.74 in North 6.8 mph 9.2 mph 95 % 0.01 in
07:35 29.2 °F 27.9 °F 29.73 in NNE 3.6 mph 6.9 mph 95 % 0.01 in
07:40 29.2 °F 27.9 °F 29.73 in NNE 3.2 mph 5.8 mph 95 % 0.01 in
07:45 29.3 °F 28.0 °F 29.73 in NNE 4.9 mph 10.4 mph 95 % 0.01 in
07:50 29.3 °F 28.0 °F 29.73 in NNE 5.6 mph 8.1 mph 95 % 0.01 in
07:55 29.3 °F 28.0 °F 29.73 in North 4.3 mph 5.8 mph 95 % 0.01 in
08:00 29.3 °F 28.0 °F 29.73 in NNE 5.2 mph 8.1 mph 95 % 0.02 in
08:05 29.3 °F 28.0 °F 29.73 in North 5.7 mph 8.1 mph 95 % 0.02 in
08:10 29.2 °F 27.9 °F 29.73 in NNE 6.0 mph 9.0 mph 95 % 0.02 in
08:15 29.2 °F 27.9 °F 29.73 in North 2.9 mph 6.9 mph 95 % 0.02 in
08:20 29.3 °F 28.0 °F 29.74 in NNE 5.7 mph 8.1 mph 95 % 0.01 in
08:25 29.4 °F 28.1 °F 29.73 in NNE 3.4 mph 6.9 mph 95 % 0.01 in
08:30 29.4 °F 28.1 °F 29.73 in NNE 5.4 mph 6.9 mph 95 % 0.01 in
08:35 29.5 °F 28.2 °F 29.74 in North 5.6 mph 9.2 mph 95 % 0.01 in
08:40 29.5 °F 28.2 °F 29.73 in NNE 3.0 mph 5.8 mph 95 % 0.01 in
08:46 29.6 °F 28.3 °F 29.73 in North 3.3 mph 5.8 mph 95 % 0.01 in
08:51 29.7 °F 28.4 °F 29.73 in NNE 3.0 mph 7.0 mph 95 % 0.00 in
08:56 29.8 °F 28.5 °F 29.73 in NNE 3.0 mph 6.0 mph 95 % 0.00 in
09:00 29.8 °F 28.5 °F 29.73 in NNE 3.6 mph 5.8 mph 95 % 0.00 in
09:06 29.9 °F 28.6 °F 29.73 in NNE 5.0 mph 8.0 mph 95 % 0.00 in
09:11 29.9 °F 28.6 °F 29.73 in NNE 3.0 mph 7.0 mph 95 % 0.00 in
09:16 30.0 °F 28.7 °F 29.73 in NNE 5.0 mph 7.0 mph 95 % 0.00 in
09:21 30.0 °F 28.7 °F 29.73 in NNE 3.0 mph 7.0 mph 95 % 0.00 in
09:26 30.1 °F 28.8 °F 29.73 in NNE 3.0 mph 6.0 mph 95 % 0.00 in
09:31 30.1 °F 28.6 °F 29.73 in NNE 2.0 mph 9.0 mph 94 % 0.00 in
09:36 30.1 °F 28.6 °F 29.73 in NNE 3.0 mph 7.0 mph 94 % 0.00 in
09:41 30.1 °F 28.6 °F 29.73 in NNE 3.0 mph 7.0 mph 94 % 0.00 in
09:46 30.2 °F 28.7 °F 29.73 in NNE 1.0 mph 4.0 mph 94 % 0.00 in
09:51 30.4 °F 28.9 °F 29.73 in NNE 3.0 mph 6.0 mph 94 % 0.00 in
09:56 30.5 °F 29.0 °F 29.73 in NNE 2.0 mph 5.0 mph 94 % 0.00 in
10:01 30.6 °F 29.1 °F 29.72 in NNE 4.3 mph 6.0 mph 94 % 0.00 in
10:06 30.7 °F 29.2 °F 29.72 in NNE 2.1 mph 4.6 mph 94 % 0.00 in
10:11 30.8 °F 29.3 °F 29.72 in NNE 2.4 mph 4.0 mph 94 % 0.00 in
10:16 31.0 °F 29.5 °F 29.73 in NNE 2.8 mph 5.8 mph 94 % 0.00 in
10:21 31.2 °F 29.7 °F 29.72 in NNE 1.9 mph 3.5 mph 94 % 0.00 in
10:26 31.5 °F 30.0 °F 29.73 in NNE 1.1 mph 3.5 mph 94 % 0.00 in
10:31 31.7 °F 30.2 °F 29.73 in North 2.0 mph 3.0 mph 94 % 0.00 in
10:36 32.0 °F 30.5 °F 29.72 in North 1.0 mph 2.3 mph 94 % 0.00 in
10:41 32.2 °F 30.7 °F 29.73 in North 2.1 mph 3.5 mph 94 % 0.00 in
10:46 32.5 °F 31.0 °F 29.73 in NNW 1.5 mph 2.3 mph 94 % 0.00 in
10:51 32.7 °F 31.2 °F 29.72 in NW 1.6 mph 2.3 mph 94 % 0.00 in
10:56 33.0 °F 31.5 °F 29.72 in NW 1.3 mph 3.0 mph 94 % 0.00 in
11:01 33.3 °F 31.5 °F 29.72 in NNW 0.6 mph 3.5 mph 93 % 0.00 in
11:06 33.6 °F 31.8 °F 29.72 in WNW 1.6 mph 4.6 mph 93 % 0.00 in
11:11 33.9 °F 31.8 °F 29.72 in WNW 2.2 mph 3.5 mph 92 % 0.00 in
11:16 34.1 °F 31.7 °F 29.72 in NW 1.7 mph 3.5 mph 91 % 0.00 in
11:21 34.2 °F 31.8 °F 29.72 in NW 1.2 mph 3.5 mph 91 % 0.00 in
11:27 34.4 °F 31.8 °F 29.71 in NW 2.3 mph 4.6 mph 90 % 0.00 in
11:32 34.6 °F 31.7 °F 29.71 in NW 0.7 mph 3.5 mph 89 % 0.00 in
11:37 34.7 °F 31.8 °F 29.71 in NW 0.5 mph 3.5 mph 89 % 0.00 in
11:42 34.8 °F 31.9 °F 29.71 in NW 2.4 mph 3.5 mph 89 % 0.00 in
11:47 35.0 °F 31.8 °F 29.70 in NW 1.9 mph 3.5 mph 88 % 0.00 in
11:52 35.0 °F 31.8 °F 29.71 in WNW 2.7 mph 4.6 mph 88 % 0.00 in
11:57 35.0 °F 31.5 °F 29.70 in WNW 1.9 mph 3.5 mph 87 % 0.00 in
12:02 35.1 °F 31.6 °F 29.70 in West 1.5 mph 3.5 mph 87 % 0.00 in
12:07 35.3 °F 31.8 °F 29.70 in WNW 3.4 mph 5.0 mph 87 % 0.00 in
12:12 35.4 °F 31.6 °F 29.69 in NNW 0.1 mph 2.3 mph 86 % 0.00 in
12:17 35.6 °F 31.8 °F 29.69 in NW 0.7 mph 3.5 mph 86 % 0.00 in
12:22 35.7 °F 31.9 °F 29.68 in West 2.1 mph 4.0 mph 86 % 0.00 in
12:27 35.8 °F 31.7 °F 29.68 in WNW 2.4 mph 3.5 mph 85 % 0.00 in
12:32 36.0 °F 31.9 °F 29.68 in West 0.3 mph 1.2 mph 85 % 0.00 in
12:37 36.2 °F 31.8 °F 29.68 in Calm   1.2 mph 84 % 0.00 in
12:42 36.4 °F 31.7 °F 29.68 in WNW 0.7 mph 4.6 mph 83 % 0.00 in
12:47 36.5 °F 31.8 °F 29.68 in WSW 2.3 mph 5.0 mph 83 % 0.00 in
12:52 36.5 °F 31.5 °F 29.68 in West 1.6 mph 3.5 mph 82 % 0.00 in
12:57 36.6 °F 31.6 °F 29.68 in West 0.5 mph 3.5 mph 82 % 0.00 in
13:02 36.7 °F 32.0 °F 29.67 in NW 2.1 mph 3.5 mph 83 % 0.00 in
13:08 36.6 °F 31.9 °F 29.67 in NW 0.2 mph 1.2 mph 83 % 0.00 in
13:12 36.6 °F 31.9 °F 29.67 in NNW 1.9 mph 3.5 mph 83 % 0.00 in
13:18 36.5 °F 31.8 °F 29.67 in West 3.1 mph 5.0 mph 83 % 0.00 in
13:23 36.4 °F 31.7 °F 29.67 in West 0.8 mph 3.5 mph 83 % 0.00 in
13:28 36.4 °F 32.0 °F 29.67 in NW 5.0 mph 7.0 mph 84 % 0.00 in
13:33 36.2 °F 31.5 °F 29.67 in WNW 3.1 mph 6.9 mph 83 % 0.00 in
13:38 36.2 °F 31.5 °F 29.67 in NW 1.9 mph 3.5 mph 83 % 0.00 in
13:43 36.2 °F 31.5 °F 29.66 in WNW 2.7 mph 5.8 mph 83 % 0.00 in
13:48 36.3 °F 31.9 °F 29.67 in WNW 2.8 mph 4.6 mph 84 % 0.00 in
13:53 36.4 °F 32.0 °F 29.67 in WNW 2.8 mph 6.9 mph 84 % 0.00 in
13:58 36.4 °F 32.0 °F 29.67 in NW 1.8 mph 4.0 mph 84 % 0.00 in
14:03 36.5 °F 31.8 °F 29.66 in WSW 2.6 mph 6.9 mph 83 % 0.00 in
14:08 36.5 °F 31.8 °F 29.66 in West 2.8 mph 3.5 mph 83 % 0.00 in
14:13 36.6 °F 31.9 °F 29.66 in NNW 2.2 mph 7.0 mph 83 % 0.00 in
14:18 36.7 °F 32.0 °F 29.66 in NW 2.6 mph 4.6 mph 83 % 0.00 in
14:23 36.7 °F 31.7 °F 29.66 in WNW 4.2 mph 7.0 mph 82 % 0.00 in
14:28 36.8 °F 31.8 °F 29.66 in WNW 4.0 mph 6.9 mph 82 % 0.00 in
14:33 36.9 °F 32.2 °F 29.66 in NW 0.3 mph 3.5 mph 83 % 0.00 in
14:38 37.0 °F 32.0 °F 29.66 in WNW 1.3 mph 3.5 mph 82 % 0.00 in
14:43 37.1 °F 32.1 °F 29.66 in NW 4.6 mph 4.6 mph 82 % 0.00 in
14:48 37.1 °F 31.8 °F 29.66 in NNW 1.4 mph 9.2 mph 81 % 0.00 in
14:53 37.2 °F 31.9 °F 29.67 in NW 2.9 mph 3.5 mph 81 % 0.00 in
14:59 37.1 °F 31.8 °F 29.67 in NW 4.3 mph 5.8 mph 81 % 0.00 in
15:04 37.0 °F 31.7 °F 29.67 in NW 2.8 mph 6.9 mph 81 % 0.00 in
15:09 36.9 °F 31.6 °F 29.66 in WNW 1.4 mph 5.8 mph 81 % 0.00 in
15:14 36.8 °F 31.8 °F 29.67 in North 3.5 mph 4.6 mph 82 % 0.00 in
15:19 36.5 °F 31.5 °F 29.67 in NNW 1.5 mph 3.5 mph 82 % 0.00 in
15:24 36.4 °F 31.7 °F 29.67 in WNW 2.1 mph 4.6 mph 83 % 0.00 in
15:29 36.2 °F 31.5 °F 29.68 in NW 1.4 mph 5.0 mph 83 % 0.00 in
15:34 36.1 °F 31.4 °F 29.68 in NW 1.3 mph 5.8 mph 83 % 0.00 in
15:39 36.0 °F 31.6 °F 29.67 in NW 4.0 mph 10.4 mph 84 % 0.00 in
15:44 35.9 °F 31.5 °F 29.68 in NW 2.6 mph 5.8 mph 84 % 0.00 in
15:49 35.7 °F 31.3 °F 29.68 in North 2.8 mph 5.0 mph 84 % 0.00 in
15:54 35.6 °F 31.2 °F 29.68 in NNW 4.9 mph 8.1 mph 84 % 0.00 in
15:59 35.5 °F 31.4 °F 29.68 in NNW 4.3 mph 8.0 mph 85 % 0.00 in
16:05 35.4 °F 31.3 °F 29.68 in North 3.2 mph 5.8 mph 85 % 0.00 in
16:10 35.2 °F 31.1 °F 29.69 in NNW 4.0 mph 9.2 mph 85 % 0.00 in
16:15 35.1 °F 31.0 °F 29.69 in NW 1.4 mph 4.6 mph 85 % 0.00 in
16:20 35.0 °F 31.2 °F 29.70 in NNW 2.3 mph 8.1 mph 86 % 0.00 in
16:25 34.9 °F 31.1 °F 29.70 in NNW 3.9 mph 6.0 mph 86 % 0.00 in
16:30 34.8 °F 31.0 °F 29.69 in NW 3.4 mph 5.8 mph 86 % 0.00 in
16:35 34.7 °F 30.9 °F 29.70 in NW 3.1 mph 3.5 mph 86 % 0.00 in
16:40 34.6 °F 30.8 °F 29.70 in NNW 1.6 mph 8.1 mph 86 % 0.00 in
16:45 34.5 °F 30.7 °F 29.70 in NNW 2.8 mph 4.6 mph 86 % 0.00 in
16:50 34.5 °F 30.7 °F 29.70 in NNW 2.1 mph 4.6 mph 86 % 0.00 in
16:55 34.4 °F 30.6 °F 29.71 in WNW 2.9 mph 6.9 mph 86 % 0.00 in
17:00 34.4 °F 30.6 °F 29.72 in West 2.6 mph 10.4 mph 86 % 0.00 in
17:06 34.3 °F 30.3 °F 29.72 in WNW 6.0 mph 12.0 mph 85 % 0.00 in
17:11 34.2 °F 30.1 °F 29.72 in WNW 6.0 mph 12.0 mph 85 % 0.00 in
17:16 34.0 °F 29.7 °F 29.72 in WNW 5.0 mph 14.0 mph 84 % 0.00 in
17:21 33.8 °F 29.2 °F 29.73 in WNW 4.3 mph 7.0 mph 83 % 0.00 in
17:26 33.7 °F 29.1 °F 29.73 in WNW 3.0 mph 10.0 mph 83 % 0.00 in
17:31 33.7 °F 29.1 °F 29.73 in WNW 5.0 mph 10.0 mph 83 % 0.00 in
17:36 33.5 °F 28.9 °F 29.74 in WNW 6.0 mph 10.0 mph 83 % 0.00 in
17:41 33.5 °F 28.9 °F 29.74 in WNW 3.0 mph 12.0 mph 83 % 0.00 in
17:46 33.5 °F 29.2 °F 29.74 in WNW 5.0 mph 12.0 mph 84 % 0.00 in
17:51 33.4 °F 29.1 °F 29.75 in WNW 5.0 mph 8.0 mph 84 % 0.00 in
17:56 33.4 °F 29.1 °F 29.75 in WNW 5.0 mph 9.0 mph 84 % 0.00 in
18:01 33.4 °F 29.1 °F 29.75 in WNW 6.9 mph 16.1 mph 84 % 0.00 in
18:06 33.4 °F 29.1 °F 29.76 in NW 3.0 mph 6.9 mph 84 % 0.00 in
18:11 33.3 °F 28.7 °F 29.76 in WSW 6.7 mph 16.1 mph 83 % 0.00 in
18:16 33.2 °F 28.3 °F 29.76 in WNW 6.7 mph 11.5 mph 82 % 0.00 in
18:21 33.0 °F 27.8 °F 29.77 in NW 2.8 mph 6.9 mph 81 % 0.00 in
18:26 32.9 °F 27.7 °F 29.77 in NW 6.7 mph 14.0 mph 81 % 0.00 in
18:31 32.7 °F 27.2 °F 29.78 in WSW 7.9 mph 13.8 mph 80 % 0.00 in
18:36 32.5 °F 27.0 °F 29.79 in WNW 7.7 mph 12.7 mph 80 % 0.00 in
18:41 32.2 °F 26.1 °F 29.79 in West 9.3 mph 18.4 mph 78 % 0.00 in
18:46 32.0 °F 25.9 °F 29.79 in WNW 4.1 mph 8.1 mph 78 % 0.00 in
18:51 31.8 °F 25.4 °F 29.79 in NNW 1.8 mph 11.5 mph 77 % 0.00 in
18:56 31.6 °F 25.2 °F 29.79 in NNW 8.0 mph 16.1 mph 77 % 0.00 in
19:01 31.4 °F 24.7 °F 29.80 in NW 7.2 mph 15.0 mph 76 % 0.00 in
19:06 31.2 °F 24.2 °F 29.80 in NNW 6.5 mph 15.0 mph 75 % 0.00 in
19:11 31.0 °F 24.0 °F 29.80 in NW 7.1 mph 11.5 mph 75 % 0.00 in
19:16 30.9 °F 23.9 °F 29.80 in NW 4.2 mph 17.3 mph 75 % 0.00 in
19:21 30.8 °F 23.8 °F 29.81 in NW 8.6 mph 12.0 mph 75 % 0.00 in
19:27 30.7 °F 23.7 °F 29.81 in WNW 6.3 mph 15.0 mph 75 % 0.00 in
19:32 30.6 °F 23.6 °F 29.81 in West 6.5 mph 13.8 mph 75 % 0.00 in
19:37 30.5 °F 23.8 °F 29.82 in WNW 6.7 mph 16.1 mph 76 % 0.00 in
19:42 30.5 °F 23.8 °F 29.82 in NW 7.8 mph 13.8 mph 76 % 0.00 in
19:47 30.3 °F 23.6 °F 29.82 in NW 8.1 mph 20.7 mph 76 % 0.00 in
19:52 30.2 °F 23.5 °F 29.82 in WNW 7.4 mph 12.7 mph 76 % 0.00 in
19:57 30.1 °F 23.4 °F 29.82 in NW 6.6 mph 13.0 mph 76 % 0.00 in
20:02 30.0 °F 23.0 °F 29.83 in WNW 7.8 mph 18.4 mph 75 % 0.00 in
20:07 29.9 °F 23.3 °F 29.83 in NW 7.9 mph 15.0 mph 76 % 0.00 in
20:12 29.8 °F 23.2 °F 29.83 in NW 7.2 mph 13.8 mph 76 % 0.00 in
20:17 29.7 °F 23.1 °F 29.83 in WNW 5.6 mph 9.2 mph 76 % 0.00 in
20:22 29.6 °F 23.0 °F 29.83 in WNW 6.6 mph 13.8 mph 76 % 0.00 in
20:27 29.5 °F 23.2 °F 29.84 in WNW 7.4 mph 16.1 mph 77 % 0.00 in
20:32 29.3 °F 23.0 °F 29.84 in NW 5.6 mph 13.0 mph 77 % 0.00 in
20:37 29.2 °F 23.2 °F 29.84 in WSW 5.2 mph 11.5 mph 78 % 0.00 in
20:42 29.1 °F 23.1 °F 29.85 in West 6.7 mph 9.2 mph 78 % 0.00 in
20:47 28.9 °F 22.9 °F 29.84 in NNW 4.1 mph 8.1 mph 78 % 0.00 in
20:52 28.8 °F 22.8 °F 29.85 in WNW 7.4 mph 10.0 mph 78 % 0.00 in
20:57 28.7 °F 23.0 °F 29.85 in NNW 6.5 mph 13.8 mph 79 % 0.00 in
21:02 28.5 °F 23.1 °F 29.85 in West 6.1 mph 11.5 mph 80 % 0.00 in
21:08 28.4 °F 23.3 °F 29.85 in NW 5.2 mph 10.0 mph 81 % 0.00 in
21:13 28.3 °F 23.2 °F 29.86 in NW 8.2 mph 17.0 mph 81 % 0.00 in
21:18 28.1 °F 22.7 °F 29.86 in WNW 10.4 mph 16.1 mph 80 % 0.00 in
21:23 27.8 °F 22.1 °F 29.86 in NW 8.6 mph 14.0 mph 79 % 0.00 in
21:28 27.7 °F 22.3 °F 29.87 in NW 7.8 mph 17.3 mph 80 % 0.00 in
21:33 27.6 °F 21.9 °F 29.87 in NW 8.7 mph 15.0 mph 79 % 0.00 in
21:38 27.4 °F 21.4 °F 29.87 in NNW 6.7 mph 15.0 mph 78 % 0.00 in
21:43 27.3 °F 21.3 °F 29.87 in North 6.8 mph 10.0 mph 78 % 0.00 in
21:48 27.2 °F 21.2 °F 29.87 in NW 5.6 mph 11.5 mph 78 % 0.00 in
21:53 27.2 °F 21.2 °F 29.88 in NW 6.2 mph 13.8 mph 78 % 0.00 in
21:58 27.2 °F 20.9 °F 29.88 in North 5.6 mph 12.7 mph 77 % 0.00 in
22:03 27.1 °F 20.8 °F 29.88 in NNW 4.3 mph 10.4 mph 77 % 0.00 in
22:08 27.0 °F 20.7 °F 29.88 in North 4.6 mph 12.7 mph 77 % 0.00 in
22:13 26.9 °F 20.3 °F 29.88 in NNW 5.1 mph 10.0 mph 76 % 0.00 in
22:18 26.9 °F 20.3 °F 29.88 in WNW 5.0 mph 8.1 mph 76 % 0.00 in
22:23 26.8 °F 20.6 °F 29.89 in North 4.0 mph 10.4 mph 77 % 0.00 in
22:28 26.8 °F 20.6 °F 29.88 in NNW 6.3 mph 13.8 mph 77 % 0.00 in
22:33 26.7 °F 20.1 °F 29.89 in North 6.4 mph 13.8 mph 76 % 0.00 in
22:38 26.7 °F 20.1 °F 29.89 in North 6.2 mph 15.0 mph 76 % 0.00 in
22:44 26.7 °F 19.8 °F 29.89 in WNW 5.6 mph 15.0 mph 75 % 0.00 in
22:49 26.7 °F 19.8 °F 29.89 in NW 9.5 mph 13.0 mph 75 % 0.00 in
22:54 26.6 °F 19.4 °F 29.90 in NNW 6.4 mph 11.5 mph 74 % 0.00 in
22:59 26.6 °F 19.7 °F 29.90 in NNW 3.6 mph 15.0 mph 75 % 0.00 in
23:04 26.6 °F 20.1 °F 29.89 in North 5.8 mph 11.5 mph 76 % 0.00 in
23:09 26.6 °F 20.1 °F 29.90 in North 6.6 mph 10.4 mph 76 % 0.00 in
23:14 26.6 °F 20.1 °F 29.90 in NNE 5.5 mph 11.5 mph 76 % 0.00 in
23:19 26.6 °F 19.7 °F 29.90 in NNE 6.6 mph 10.4 mph 75 % 0.00 in
23:24 26.5 °F 19.3 °F 29.90 in North 6.0 mph 12.7 mph 74 % 0.00 in
23:29 26.4 °F 19.2 °F 29.90 in NW 5.5 mph 8.0 mph 74 % 0.00 in
23:34 26.3 °F 18.8 °F 29.90 in NNW 4.3 mph 10.4 mph 73 % 0.00 in
23:39 26.2 °F 18.4 °F 29.90 in North 8.6 mph 13.8 mph 72 % 0.00 in
23:44 26.1 °F 18.3 °F 29.90 in North 4.7 mph 6.0 mph 72 % 0.00 in
23:49 26.1 °F 18.6 °F 29.90 in NW 5.4 mph 9.2 mph 73 % 0.00 in
23:54 26.0 °F 18.5 °F 29.90 in North 7.1 mph 10.4 mph 73 % 0.00 in
23:59 26.0 °F 18.5 °F 29.90 in NW 4.5 mph 8.1 mph 73 % 0.00 in
Crab Meadow Weather
Compliments of Weather Underground - 3 mb

Script developed by  Jim McMurry - jmcmurry@mwt.net Adapted for the template by  Wim van der Kuil - Leuven-Template.eu

Weather Terms: Frost Advisory - Widespread frost during the growing season. Frost generally occurs with fair skies and light winds.